Aérodrome :
LOGIN :

S'inscrire | Disclaimer

   EN    FR    IT 

 










Légende :    VFR   VFR Marginal   IFR   IFR Intensif   IFR Très Intensif
Visi : 
Plafond : 
>= 8 km
>= 3000ft
5 à 8 km
1000 à 3000 ft
1500m à 5 km
500 à 1000 ft
800 à 1500m
200 à 500 ft
< 800m
< 200 ft
Symboles :   Orages  Brouillard  Fortes neiges  Fortes précipitations  Vent > 20 kt
SIGMETs :   Divers  Orages  Givrage  Turbulence  Onde Orograph.  Cendres Volcan.







- Altitude de l'aérodrome : 327 ft
- Code IATA : BHX
- Voir les cartes d'approche


EGBB - Birmingham

DERNIER METAR :
  • 230420Z 34008KT 9000 OVC005 00/00 Q0998

METARs EXPIRÉS :
  • 230350Z 33009KT 9999 OVC005 00/00 Q0998
  • 230320Z 33008KT 9999 OVC005 00/00 Q0998
  • 230250Z 00000KT 8000 OVC005 00/M00 Q0997
  • 230220Z 00000KT 9999 FEW007 SCT014 BKN025 00/00 Q0997
  • 230150Z 00000KT 8000 FEW023 SCT028 M00/M00 Q0997

TAF AMD TAF EGBB
Valide du 23 à 04h jusqu'au 24 à 00h UTC


230430Z 2304/2324 30005KT 9000 BKN005
PROB30 2304/2306 9999 SCT010
BECMG 2306/2309 9999 SCT010
PROB40 2320/2324 6000
ATIS : +44 121 780 0910
Pas de NOTAMs connus pour ce terrain.



MET'MAP, la Météo Aéronautique d'un coup d'oeil ! - Copyright ORBIFLY Décembre 2007 - Disclaimer

ORBIFLY MET'MAP TEAM :

Programmation & Développement : Alexandra Zaïnal
Conception & Développement : Baudouin d'Aumeries
Co-Programmation & Développement : Marc-Olivier Méhu
Soutien technique & logistique : Manuel Goepfert

Contact : metmap@orbifly.com




SOURCES & CREDITS :

   NOAA